Home   Weather   Baltimore   Past weeks

Flag for USA Past Weather in Baltimore, Maryland, USA — Yesterday and Last 2 Weeks

Now
78 °F

Broken clouds.


Feels Like: 80 °F
Forecast: 55 / 79 °F
Wind: 12 mph from Southeast

Location: Baltimore-Washington International Airport

Current Time: Apr 27, 2017 at 4:52:22 pm

Latest Report: Apr 27, 2017 at 3:54 pm


Visibility: 10 mi

Pressure: 29.77 "Hg

Humidity: 66%

Dew Point: 66 °F

Location of BaltimoreLocation

Past Weather in Baltimore — Graph

°F

Baltimore Temperature Yesterday

Maximum temperature yesterday: 66 °F (at 5:54 pm)
Minimum temperature yesterday: 56 °F (at 2:54 am)
Average temperature yesterday: 60 °F

High & Low Weather Summary for the Past Weeks

 TemperatureHumidityPressure
High86 °F (Apr 16, 2:54 pm)100% (Apr 15, 11:10 pm)30.45 "Hg (Apr 15, 11:10 pm)
Low46 °F (Apr 23, 5:54 am)23% (Apr 12, 6:54 pm)29.68 "Hg (Apr 26, 3:54 am)
Average60 °F76%30.05 "Hg
* Reported Apr 12 2:54 pm — Apr 27 2:54 pm, Baltimore, Weather by CustomWeather, © 2017

Note: Actual official high and low records may vary slightly from our data, if they occured in-between our weather recording intervals... More about our weather records

Advertising

Baltimore Weather History for the Previous 24 Hours

Scroll right to see more
 ConditionsComfort  
Time TempWeatherWind HumidityBarometerVisibility
2:54 pm
Thu, Apr 27
78 °FBroken clouds.9 mph66%29.78 "Hg10 mi
1:54 pm77 °FBroken clouds.7 mph69%29.80 "Hg10 mi
12:54 pm75 °FPartly sunny.3 mph71%29.82 "Hg10 mi
11:54 am72 °FMostly cloudy.6 mph76%29.85 "Hg9 mi
10:54 am68 °FPartly sunny.3 mph84%29.86 "Hg8 mi
10:25 am65 °FFog.3 mph91%29.86 "Hg6 mi
9:54 am63 °FFog.5 mph93%29.85 "Hg5 mi
8:54 am59 °FFog.6 mph100%29.85 "Hg4 mi
8:14 am58 °FFog.5 mph100%29.85 "Hg2 mi
7:54 am58 °FFog.7 mph100%29.85 "Hg1 mi
7:41 am58 °FFog.7 mph100%29.86 "Hg1 mi
6:54 am58 °FFog.5 mph100%29.84 "Hg1 mi
6:14 am57 °FFog.6 mph100%29.84 "Hg0 mi
6:06 am58 °FFog.5 mph100%29.84 "Hg0 mi
5:42 am57 °FFog.5 mph100%29.83 "Hg2 mi
4:54 am55 °FFog.3 mph100%29.82 "Hg3 mi
4:33 am53 °FFog.No wind100%29.82 "Hg1 mi
3:54 am53 °FFog.No wind100%29.82 "Hg2 mi
3:36 am53 °FFog.No wind100%29.83 "Hg2 mi
3:18 am54 °FFog.No wind100%29.83 "Hg1 mi
3:03 am54 °FFog.No wind100%29.83 "Hg2 mi
1:54 am54 °FFog.No wind100%29.83 "Hg6 mi
1:35 am54 °FPassing clouds.No wind100%29.84 "Hg8 mi
12:54 am56 °FFog.No wind100%29.84 "Hg6 mi
11:54 pm
Wed, Apr 26
57 °FPassing clouds.No wind100%29.84 "Hg9 mi
10:54 pm58 °FPassing clouds.No wind100%29.84 "Hg10 mi
9:54 pm60 °FPassing clouds.6 mph96%29.82 "Hg10 mi
9:16 pm60 °FPassing clouds.5 mph96%29.82 "Hg10 mi
8:54 pm62 °FPassing clouds.No wind90%29.80 "Hg10 mi
7:54 pm64 °FPassing clouds.3 mph87%29.79 "Hg10 mi
6:54 pm66 °FOvercast.No wind78%29.79 "Hg10 mi
5:54 pm66 °FOvercast.No wind75%29.77 "Hg10 mi
4:54 pm65 °FOvercast.No wind78%29.77 "Hg10 mi
Weather by CustomWeather, © 2017

See weather overviewHow to use our weather pages